Home   Weather   Hamilton   Past weeks
Flag for Bermuda

Past Weather in Hamilton, Bermuda — Yesterday and Last 2 Weeks

Now
75 °F

Passing clouds.


Feels Like: 76 °F
Forecast: 79 / 67 °F
Wind: 6 mph from West

Location: Bermuda

Current Time: Oct 15, 2019 at 8:20:24 am

Latest Report: Oct 15, 2019 at 6:55 am


Visibility: N/A

Pressure: 30.04 "Hg

Humidity: 78%

Dew Point: 68 °F

Location of HamiltonLocation

Past Weather in Hamilton — Graph

°F

Hamilton Temperature Yesterday

Maximum temperature yesterday: 79 °F (at 11:55 am)
Minimum temperature yesterday: 73 °F (at 12:55 am)
Average temperature yesterday: 76 °F

High & Low Weather Summary for the Past Weeks

 TemperatureHumidityPressure
High82 °F (Oct 1, 11:55 am)100% (Oct 1, 12:55 am)30.33 "Hg (Oct 1, 12:55 am)
Low72 °F (Oct 6, 6:55 am)44% (Oct 6, 9:55 am)29.80 "Hg (Oct 11, 3:55 am)
Average77 °F78%29.99 "Hg
* Reported Sep 30 6:55 am — Oct 15 6:55 am, Hamilton. Weather by CustomWeather, © 2019

Note: Actual official high and low records may vary slightly from our data, if they occured in-between our weather recording intervals... More about our weather records

Advertising

Hamilton Weather History for the Previous 24 Hours

Scroll right to see more
 ConditionsComfort  
Time TempWeatherWind HumidityBarometerVisibility
6:55 am
Tue, Oct 15
75 °FPassing clouds.6 mph78%30.04 "HgN/A
5:55 am75 °FPassing clouds.5 mph78%30.04 "HgN/A
4:55 am73 °FPassing clouds.6 mph83%30.04 "HgN/A
3:55 am73 °FPassing clouds.3 mph89%30.04 "HgN/A
2:55 am73 °FPassing clouds.5 mph89%30.04 "HgN/A
1:55 am73 °FPassing clouds.3 mph89%30.04 "HgN/A
12:55 am73 °FPassing clouds.2 mph94%30.07 "HgN/A
11:55 pm
Mon, Oct 14
73 °FPassing clouds.3 mph89%30.07 "HgN/A
10:55 pm73 °FPartly cloudy.2 mph89%30.07 "HgN/A
9:55 pm73 °FPassing clouds.1 mph89%30.07 "HgN/A
8:55 pm75 °FPartly cloudy.No wind83%30.07 "HgN/A
7:55 pm75 °FPassing clouds.2 mph83%30.04 "HgN/A
6:55 pm75 °FPassing clouds.3 mph78%30.04 "HgN/A
5:55 pm77 °FPartly sunny.5 mph79%30.04 "HgN/A
4:55 pm79 °FPartly sunny.5 mph70%30.04 "HgN/A
3:55 pm79 °FPartly sunny.6 mph70%30.04 "HgN/A
2:55 pm77 °FBroken clouds.7 mph79%30.04 "HgN/A
1:55 pm79 °FBroken clouds.7 mph74%30.07 "HgN/A
12:55 pm79 °FBroken clouds.7 mph74%30.07 "HgN/A
11:55 am79 °FBroken clouds.5 mph74%30.09 "HgN/A
10:55 am77 °FPartly sunny.5 mph79%30.09 "HgN/A
9:55 am77 °FPartly sunny.6 mph79%30.07 "HgN/A
8:55 am75 °FPartly sunny.6 mph83%30.07 "HgN/A
Weather by CustomWeather, © 2019

See weather overview